When you browse on this site, cookies collect data to enhance your experience and personalize the content and advertising you see.
Visit our Privacy Policy to learn more. By continuing to use the site, you agree to this use of cookies and data.
  • In United Kingdom
  • List of Countries
  • For 7 days
  • Water Temperature
  • Weather Map
  • Weather Widgets
  • user-avatar
    Login

    Hourly Weather Krasnokamensk

    Today, 22 November, Friday

    Time Temperature Precipitation Wind Pressure Humidity
    00:00 -14°C° 0 mm 1 mps 697 mmHg 94%
    01:00 -14°C° 0 mm 1 mps 697 mmHg 94%
    02:00 -13°C° 0 mm 1 mps 697 mmHg 94%
    03:00 -13°C° 0 mm 1 mps 696 mmHg 95%
    04:00 -15°C° 0 mm 2 mps 696 mmHg 95%
    05:00 -15°C° 0 mm 2 mps 695 mmHg 95%
    06:00 -15°C° 0 mm 2 mps 694 mmHg 95%
    07:00 -15°C° 0 mm 2 mps 694 mmHg 95%
    08:00 -15°C° 0 mm 2 mps 693 mmHg 95%
    09:00 -14°C° 0 mm 2 mps 692 mmHg 92%
    10:00 -13°C° 0 mm 2 mps 692 mmHg 89%
    11:00 -10°C° 0 mm 1 mps 692 mmHg 86%
    12:00 -12°C° 0 mm 2 mps 692 mmHg 85%
    13:00 -12°C° 0 mm 3 mps 692 mmHg 84%
    14:00 -12°C° 0 mm 4 mps 691 mmHg 91%
    15:00 -13°C° 0.2 mm 5 mps 692 mmHg 89%
    16:00 -15°C° 0.2 mm 6 mps 693 mmHg 86%
    17:00 -15°C° 0.2 mm 7 mps 694 mmHg 84%
    18:00 -17°C° 0 mm 7 mps 695 mmHg 78%
    19:00 -18°C° 0 mm 8 mps 696 mmHg 73%
    20:00 -18°C° 0 mm 8 mps 697 mmHg 72%
    21:00 -19°C° 0 mm 8 mps 698 mmHg 72%
    22:00 -21°C° 0 mm 8 mps 699 mmHg 72%
    23:00 -22°C° 0 mm 8 mps 699 mmHg 73%

    Tomorrow, 23 November, Saturday

    Time Temperature Precipitation Wind Pressure Humidity
    00:00 -22°C° 0 mm 8 mps 700 mmHg 73%
    01:00 -23°C° 0 mm 8 mps 701 mmHg 74%
    02:00 -24°C° 0 mm 8 mps 702 mmHg 74%
    03:00 -24°C° 0 mm 8 mps 702 mmHg 74%
    04:00 -24°C° 0 mm 8 mps 703 mmHg 75%
    05:00 -26°C° 0 mm 8 mps 703 mmHg 75%
    06:00 -26°C° 0 mm 8 mps 703 mmHg 76%
    07:00 -25°C° 0 mm 7 mps 704 mmHg 76%
    08:00 -25°C° 0 mm 7 mps 704 mmHg 77%
    09:00 -24°C° 0 mm 7 mps 705 mmHg 74%
    10:00 -24°C° 0 mm 7 mps 705 mmHg 70%
    11:00 -23°C° 0 mm 7 mps 706 mmHg 67%
    12:00 -23°C° 0 mm 7 mps 706 mmHg 67%
    13:00 -21°C° 0 mm 7 mps 705 mmHg 66%
    14:00 -21°C° 0 mm 6 mps 705 mmHg 66%
    15:00 -22°C° 0 mm 6 mps 706 mmHg 70%
    16:00 -21°C° 0 mm 5 mps 706 mmHg 75%
    17:00 -22°C° 0 mm 5 mps 707 mmHg 79%
    18:00 -22°C° 0 mm 4 mps 707 mmHg 80%
    19:00 -22°C° 0 mm 4 mps 708 mmHg 81%
    20:00 -23°C° 0 mm 4 mps 708 mmHg 82%
    21:00 -23°C° 0 mm 4 mps 708 mmHg 82%
    22:00 -23°C° 0 mm 4 mps 709 mmHg 82%
    23:00 -23°C° 0 mm 4 mps 709 mmHg 82%

    Day after tomorrow, 24 November, Sunday

    Time Temperature Precipitation Wind Pressure Humidity
    00:00 -24°C° 0 mm 4 mps 709 mmHg 82%
    01:00 -24°C° 0 mm 4 mps 709 mmHg 83%
    02:00 -24°C° 0 mm 4 mps 709 mmHg 84%
    03:00 -24°C° 0 mm 4 mps 709 mmHg 84%
    04:00 -26°C° 0 mm 5 mps 709 mmHg 85%
    05:00 -26°C° 0 mm 5 mps 710 mmHg 86%
    06:00 -26°C° 0 mm 5 mps 710 mmHg 86%
    07:00 -26°C° 0 mm 5 mps 710 mmHg 87%
    08:00 -26°C° 0 mm 5 mps 710 mmHg 87%
    09:00 -25°C° 0 mm 5 mps 711 mmHg 81%
    10:00 -23°C° 0 mm 6 mps 711 mmHg 74%
    11:00 -23°C° 0 mm 7 mps 711 mmHg 67%
    12:00 -23°C° 0 mm 7 mps 710 mmHg 66%
    13:00 -21°C° 0 mm 6 mps 710 mmHg 66%
    14:00 -21°C° 0 mm 6 mps 710 mmHg 65%
    15:00 -21°C° 0 mm 5 mps 710 mmHg 72%
    16:00 -22°C° 0 mm 4 mps 710 mmHg 78%
    17:00 -22°C° 0 mm 3 mps 709 mmHg 85%
    18:00 -23°C° 0 mm 3 mps 709 mmHg 85%
    19:00 -23°C° 0 mm 3 mps 709 mmHg 86%
    20:00 -21°C° 0 mm 2 mps 709 mmHg 87%
    21:00 -23°C° 0 mm 3 mps 709 mmHg 87%
    22:00 -23°C° 0 mm 3 mps 709 mmHg 87%
    23:00 -23°C° 0 mm 3 mps 709 mmHg 87%

    25 November, Monday

    Time Temperature Precipitation Wind Pressure Humidity
    00:00 -23°C° 0 mm 3 mps 708 mmHg 86%
    01:00 -23°C° 0 mm 3 mps 708 mmHg 86%
    02:00 -23°C° 0 mm 3 mps 708 mmHg 86%
    03:00 -23°C° 0 mm 3 mps 708 mmHg 85%
    04:00 -23°C° 0 mm 3 mps 707 mmHg 84%
    05:00 -23°C° 0 mm 3 mps 707 mmHg 83%
    06:00 -23°C° 0 mm 3 mps 706 mmHg 83%
    07:00 -21°C° 0 mm 2 mps 706 mmHg 82%
    08:00 -21°C° 0 mm 2 mps 706 mmHg 82%
    09:00 -21°C° 0 mm 3 mps 706 mmHg 76%
    10:00 -19°C° 0 mm 3 mps 706 mmHg 70%
    11:00 -17°C° 0 mm 3 mps 705 mmHg 64%
    12:00 -16°C° 0 mm 3 mps 705 mmHg 64%
    13:00 -15°C° 0 mm 3 mps 705 mmHg 64%
    14:00 -15°C° 0 mm 3 mps 704 mmHg 63%
    15:00 -16°C° 0 mm 3 mps 704 mmHg 69%
    16:00 -18°C° 0 mm 3 mps 704 mmHg 75%
    17:00 -18°C° 0 mm 2 mps 704 mmHg 81%
    18:00 -18°C° 0 mm 2 mps 704 mmHg 81%
    19:00 -17°C° 0 mm 2 mps 704 mmHg 80%
    20:00 -17°C° 0 mm 2 mps 704 mmHg 79%
    21:00 -17°C° 0 mm 3 mps 704 mmHg 79%
    22:00 -18°C° 0 mm 4 mps 704 mmHg 78%
    23:00 -18°C° 0 mm 5 mps 704 mmHg 78%

    26 November, Tuesday

    Time Temperature Precipitation Wind Pressure Humidity
    00:00 -19°C° 0 mm 5 mps 704 mmHg 77%
    01:00 -20°C° 0 mm 6 mps 704 mmHg 75%
    02:00 -21°C° 0 mm 6 mps 704 mmHg 74%
    03:00 -21°C° 0 mm 7 mps 705 mmHg 76%
    04:00 -23°C° 0 mm 7 mps 705 mmHg 77%
    05:00 -23°C° 0 mm 7 mps 705 mmHg 79%
    06:00 -23°C° 0 mm 6 mps 706 mmHg 78%
    07:00 -23°C° 0 mm 6 mps 707 mmHg 78%
    08:00 -24°C° 0 mm 5 mps 708 mmHg 77%
    09:00 -23°C° 0 mm 6 mps 709 mmHg 66%
    10:00 -23°C° 0 mm 7 mps 710 mmHg 55%
    11:00 -21°C° 0 mm 7 mps 711 mmHg 44%
    12:00 -21°C° 0 mm 7 mps 711 mmHg 44%
    13:00 -21°C° 0 mm 6 mps 712 mmHg 44%
    14:00 -21°C° 0 mm 6 mps 712 mmHg 44%
    15:00 -21°C° 0 mm 5 mps 713 mmHg 53%
    16:00 -22°C° 0 mm 4 mps 713 mmHg 61%
    17:00 -23°C° 0 mm 4 mps 713 mmHg 70%
    18:00 -23°C° 0 mm 3 mps 714 mmHg 73%
    19:00 -23°C° 0 mm 3 mps 714 mmHg 76%
    20:00 -23°C° 0 mm 2 mps 715 mmHg 79%
    21:00 -24°C° 0 mm 3 mps 715 mmHg 81%
    22:00 -24°C° 0 mm 3 mps 715 mmHg 82%
    23:00 -24°C° 0 mm 3 mps 715 mmHg 84%

    27 November, Wednesday

    Time Temperature Precipitation Wind Pressure Humidity
    00:00 -25°C° 0 mm 3 mps 715 mmHg 84%
    01:00 -25°C° 0 mm 3 mps 715 mmHg 84%
    02:00 -25°C° 0 mm 3 mps 715 mmHg 85%
    03:00 -25°C° 0 mm 3 mps 715 mmHg 86%
    04:00 -25°C° 0 mm 3 mps 715 mmHg 87%
    05:00 -25°C° 0 mm 3 mps 714 mmHg 88%
    06:00 -25°C° 0 mm 3 mps 714 mmHg 88%
    07:00 -25°C° 0 mm 3 mps 714 mmHg 88%
    08:00 -25°C° 0 mm 3 mps 715 mmHg 88%
    09:00 -23°C° 0 mm 3 mps 715 mmHg 82%
    10:00 -23°C° 0 mm 4 mps 714 mmHg 76%
    11:00 -20°C° 0 mm 4 mps 714 mmHg 70%
    12:00 -20°C° 0 mm 5 mps 714 mmHg 68%
    13:00 -19°C° 0 mm 5 mps 714 mmHg 67%
    14:00 -19°C° 0 mm 5 mps 714 mmHg 65%
    15:00 -19°C° 0 mm 4 mps 714 mmHg 71%
    16:00 -19°C° 0 mm 3 mps 713 mmHg 76%
    17:00 -21°C° 0 mm 3 mps 713 mmHg 82%
    18:00 -20°C° 0 mm 2 mps 713 mmHg 83%
    19:00 -20°C° 0 mm 2 mps 713 mmHg 83%
    20:00 -19°C° 0 mm 1 mps 713 mmHg 84%
    21:00 -19°C° 0 mm 1 mps 713 mmHg 84%
    22:00 -19°C° 0 mm 1 mps 713 mmHg 84%
    23:00 -19°C° 0 mm 1 mps 713 mmHg 84%
    Show more